Tracking 19280 objects as of 15-Nov-2018
HD Live streaming from Space Station
objects crossing your sky now

OPS 1264 (DMSP 4A F4)

Track OPS 1264 (DMSP 4A F4) now!
10-day predictions
OPS 1264 (DMSP 4A F4) is classified as:


NORAD ID: 2980
Int'l Code: 1967-096A
Perigee: 633.1 km
Apogee: 772.1 km
Inclination: 99.2 °
Period: 98.7 minutes
Semi major axis: 7073 km
RCS: 0.6338 m2 (medium)
Launch date: October 11, 1967
Source: United States (US)
Launch site: AIR FORCE WESTERN TEST RANGE (AFWTR)
aabbcc
Your satellite tracking list
Your tracking list is empty




NASA's NSSDC Master Catalog

Two Line Element Set (TLE):
1  2980U 67096A   18319.47109910  .00000034  00000-0  19389-4 0  9991
2  2980  99.1762  47.3498 0098272 227.5325 131.7535 14.59284365703679
Source of the keplerian elements: AFSPC